Terug naar catalogus

COSMOS 1181

ActiefMilitairPO
NORAD 11803·PAYLOAD·🇷🇺 Russia

Gelanceerd May 20, 1980 vanaf Plesetsk Cosmodrome

Loading…

Volgende Passages (komende 24 uur)

TLE

VersSource: Space-Track

Epoch: Sep 14, 2026, 16:35 UTC

1 11803U 80039A   26257.69155045  .00000058  00000-0  45554-4 0  9990
2 11803  82.9449 149.5881 0022302 354.2830  32.9488 13.74210503322255

Volg COSMOS 1181 in realtime met AllMySat

Download on the App Store